Regional Weather Roundup
Issued by NWS Upton, NY

Current Version | Previous Version | Text Only | Print | Product List | Glossary On
Versions: 1 2 3 4 5 6 7 8 9 10 11 12 13 14 15 16 17 18 19 20 21 22 23 24 25 26 27 28 29 30 31 32 33 34 35 36 37 38 39 40 41 42 43 44 45 46 47 48 49 50
124
ASUS41 KOKX 281304
RWROKX

REGIONAL WEATHER ROUNDUP
NATIONAL WEATHER SERVICE NEW YORK NY
900 AM EDT THU APR 28 2016

NOTE: "FAIR" INDICATES FEW OR NO CLOUDS BELOW 12,000 FEET WITH NO
SIGNIFICANT WEATHER AND/OR OBSTRUCTIONS TO VISIBILITY.

NYZ071-072-176-178-NJZ106-104-281400-
NEW YORK CITY METRO AREA


CITY           SKY/WX    TMP DP  RH WIND       PRES   REMARKS
CENTRAL PARK   PTSUNNY   50  23  34 VRB6      30.08S
LAGUARDIA APRT CLOUDY    50  24  36 NE14      30.06R
KENNEDY INTL   CLOUDY    53  19  26 NE12      30.06S
NEWARK/LIBERTY PTSUNNY   51  23  33 NE10      30.06S
BRNX BOT. GARD   N/A     50  25  37 SE1       30.05F
TETERBORO      CLOUDY    51  23  33 NE7       30.05S
$$

NYZ177-179-078>081-281400-
LONG ISLAND NEW YORK

CITY           SKY/WX    TMP DP  RH WIND       PRES   REMARKS
FARMINGDALE    CLOUDY    51  25  36 NE8       30.05R
ISLIP          CLOUDY    52  22  30 NE9       30.04S
SHIRLEY        PTSUNNY   53  24  32 VRB5      30.06S
RIVERHEAD        N/A     52  32  46 E3        30.06R
WESTHAMPTON    CLOUDY    51  23  33 NE9       30.07S
EAST HAMPTON   FAIR      50  25  38 E8        30.05S
MONTAUK POINT    N/A     49  30  48 NE8       30.07R
$$

NYZ052-065-067-281400-
HUDSON VALLEY

CITY           SKY/WX    TMP DP  RH WIND       PRES   REMARKS
WHITE PLAINS   PTSUNNY   50  22  33 N9        30.05R
NEWBURGH       NOT AVBL
MONTGOMERY     SUNNY     48  25  40 NE12      30.07R
POUGHKEEPSIE   SUNNY     50  22  33 N12       30.08R
ALBANY         PTSUNNY   46  19  34 NW9       30.09S
$$

NJZ001-105-106-008-010-013-015-019>022-104-281400-
NEW JERSEY

CITY           SKY/WX    TMP DP  RH WIND       PRES   REMARKS
NEWARK/LIBERTY PTSUNNY   51  23  33 NE10      30.06S
TETERBORO      CLOUDY    51  23  33 NE7       30.05S
CALDWELL       CLOUDY    50  23  34 E10       30.06S
MORRISTOWN     PTSUNNY   50  23  34 E6        30.06S
SOMERVILLE     CLOUDY    51  26  37 NE9       30.04R
SUSSEX         MOSUNNY   48  25  40 NE8       30.06R
ANDOVER          N/A     47  24  40 NE7       30.05R
TRENTON        MOSUNNY   51  34  52 NE7       30.04R
MILLVILLE      CLOUDY    53  44  71 E15       30.01R
ATLANTIC CITY  PTSUNNY   53  39  59 E16       30.02R
WRIGHTSTOWN    CLOUDY    52  34  50 E10       30.01R
TOMS RIVER     CLOUDY    54  28  37 E10G18    30.04R
BELMAR         MOSUNNY   51  25  36 NE15G21   30.04S
$$

PAZ047>061-062-071-281400-
EASTERN PENNSYLVANIA

CITY           SKY/WX    TMP DP  RH WIND       PRES   REMARKS
PHILADELPHIA   CLOUDY    54  39  57 NE10      30.04R
ALLENTOWN      CLOUDY    51  26  37 E9        30.04R
SCRANTON       MOSUNNY   47  21  35 NE8       30.05S
$$

CTZ002-004>006-009-010-012-RIZ004-006-007-MAZ004-011-015-281400-
SOUTHERN NEW ENGLAND
 IN CT

CITY           SKY/WX    TMP DP  RH WIND       PRES   REMARKS
BRADLEY INTL   PTSUNNY   49  18  29 NW9       30.06R
HARTFORD       SUNNY     51  22  31 NE6       30.07R
DANBURY        MOSUNNY   49  21  33 NE10      30.08R
WTRBRY/OXFORD  MOSUNNY   46  23  39 N8        30.07R
BRIDGEPORT     MOSUNNY   52  22  30 N7        30.07R
MERIDEN        MOSUNNY   51  20  29 VRB5      30.07R
NEW HAVEN      CLOUDY    50  21  32 VRB5      30.06R
CHESTER        FAIR      50  16  25 N6        30.05S
GROTON         SUNNY     48  30  49 SE7       30.05S
WILLIMANTIC    SUNNY     50  24  36 VRB3      30.06R

 IN RI

CITY           SKY/WX    TMP DP  RH WIND       PRES   REMARKS
PROVIDENCE     PTSUNNY   50  16  25 N10       30.06S
BLOCK ISLAND   SUNNY     48  30  49 NE9       30.06R
WESTERLY       SUNNY     50  18  28 NE3       30.06R

 IN MA

CITY           SKY/WX    TMP DP  RH WIND       PRES   REMARKS
BOSTON         MOSUNNY   47  13  25 N10       30.07R
WORCESTER      SUNNY     43  13  29 NW10      30.04R
WESTFIELD      SUNNY     48  19  31 VRB5      30.06R
PROVINCETOWN   SUNNY     47  27  45 NW6       30.06S
NANTUCKET      SUNNY     50  29  44 NE9       30.05R
$$

ANZ330-335-338-340-345-350-353-355-281400-
COASTAL MARINE OBSERVATIONS


STATION/POSITION TIME  SKY/WX   TEMP    WIND        PRES    VSBY  WAVE
                                AIR SEA DIR/SP/G                  HT/PER
                 (UTC)          (F)     (DEG/KT/KT) (MB)    (MI)  (FT/S)
NY HARB ENTRANCE 1150            50 52   40/ 16/ 19 1016.7          3/ 7
20S FIRE ISLAND  1150            49 49   40/ 16/ 19 1016.4          3/ 7
GREAT SOUTH BAY  1200            50 58   40/ 12/ 14   N/A
23 SSW MONTAUK P 1250            47 47   80/ 14/ 17 1016.9          3/ 7
15 E BARNEGAT LI 1222               51                N/A           3/ 6
HUDSON CANYON    1150            50 49              1016.0          2/ 7
KINGS POINT      1200            48 53              1017.4
EXECUTION ROCKS  NOT AVBL
CENTRAL LI SOUND 1200            48      20/  6/  8   N/A           1
EASTERN LI SOUND 1200            49 47   60/  8/ 10   N/A
ROBBINS REEF     1212            49      50/ 12/ 16 1016.7
$$


>>>>>>>>>>>>>>>>>>>>>>>>>>>> KEY <<<<<<<<<<<<<<<<<<<<<<<<<<<
>                                                          <
>     SKY/WX - SKY CONDITION/PRESENT WEATHER               <
>     TMP    - TEMPERATURE IN FAHRENHEIT                   <
>     DP     - DEWPOINT IN FAHRENHEIT                      <
>     RH     - RELATIVE HUMIDITY IN PERCENT                <
>     WIND   - DIRECTION AND SPEED IN MPH                  <
>     PRES   - MEAN SEA LEVEL PRESSURE IN INCHES OF HG     <
>     WCI    - WIND CHILL INDEX                            <
>     VSB    - VISIBILITY IN MILES                         <
>     HX     - HEAT INDEX                                  <
>     TC     - TEMPERATURE IN CELSIUS                      <
>     VRB    - VARIABLE WIND DIRECTION                     <
>                                                          <
>>>>>>>>>>>>>>>>>>>>>>>>>>>> KEY <<<<<<<<<<<<<<<<<<<<<<<<<<<






USA.gov is the U.S. government's official web portal to all federal, state and local government web resources and services.